Location: Unspecified
(47.4992°N, 121.7766°W)
Time: 11:04:37
(UTC-07:00)

Okean 3 - Pass Details

Date: 09 August 2024
Orbit: 557 x 580 km, 82.5° (Epoch: 12 September)

Event Time Altitude Azimuth Distance (km) Brightness Sun altitude
Rises 02:48:21 0° 351° (N) 2,758 7.8 -23.3°
Reaches altitude 10° 02:50:32 10° 351° (N) 1,856 6.7 -23.2°
Maximum altitude 02:54:38 86° 81° (E) 566 3.2 -22.9°
Enters shadow 02:54:42 85° 123° (ESE) 567 3.2 -22.8°
